[[{"header":{"parameterUnit":"m.s-1","parameterCategory":1,"la1":30.2991,"la2":30.254,"lo1":-89.0895,"lo2":-89.0444,"dy":0.0017,"dx":0.0017,"nx":28,"ny":28,"refTime":"2024-05-29T03:00:00:Z","depth":0,"parameterNumber":2,"parameterNumberName":"U-component_of_WINDS"},"data":[0,0,0,0,0,0,0,0,0,0,0,0,0,0,0,0,0,0,0,0,0,0,0,0,0,0,0,0,0,0,0,0,0,0,0,0,0,0,0,0,0,0,0,0,0,0,0,0,0,0,0,0,0,0,0,0,0,0,-2.1965,-2.1964,0,-2.1902,-2.1901,-2.19,-2.1829,-2.1828,-2.1827,-2.1826,-2.176,-2.1759,-2.1758,0,0,0,0,0,0,0,0,0,0,0,0,0,-2.2021,-2.2021,-2.1965,-2.1964,-2.1963,-2.1902,-2.1901,-2.19,-2.1829,-2.1828,-2.1827,-2.1826,-2.176,-2.1759,-2.1758,0,0,0,0,0,0,0,0,0,0,0,0,0,-2.1982,-2.2021,-2.1965,-2.192,-2.1916,-2.1902,-2.1901,-2.19,-2.183,-2.1828,-2.1827,-2.1825,-2.176,-2.1759,-2.1758,-2.1782,0,0,-2.1754,-2.1754,0,0,0,0,0,0,0,0,-2.1984,-2.198,-2.1928,-2.1923,-2.1918,-2.1872,-2.1897,-2.186,-2.183,-2.1862,-2.1826,-2.1824,-2.1798,-2.1794,-2.1785,-2.1779,-2.1776,-2.1754,-2.1754,-2.1753,-2.1753,0,0,0,0,0,0,0,-2.1987,-2.1982,-2.194,-2.1927,-2.1921,-2.1903,-2.1896,-2.1889,-2.184,-2.1859,-2.1854,-2.1848,-2.1795,-2.1787,-2.1783,-2.1775,-2.1754,-2.1753,-2.1753,-2.1752,-2.1785,-2.1786,0,0,0,0,0,0,-2.1996,-2.1985,-2.1942,-2.1938,-2.1948,-2.1903,-2.1895,-2.1888,-2.184,-2.1831,-2.1849,-2.1845,-2.179,-2.1785,-2.1781,-2.1805,-2.1753,-2.1752,-2.1751,-2.1783,-2.1785,-2.1787,0,0,0,0,0,0,-2.1998,-2.1993,-2.1944,-2.196,-2.1952,-2.1904,-2.1897,-2.1888,-2.1879,-2.1832,-2.1823,-2.185,-2.1788,-2.1782,-2.1782,-2.1802,-2.1751,-2.175,-2.1781,-2.1784,-2.1786,-2.1854,0,0,0,0,0,0,-2.2,-2.1994,-2.2003,-2.1961,-2.1952,-2.1948,-2.1898,-2.1888,-2.1878,-2.1871,-2.183,-2.1822,-2.1786,-2.1784,-2.1781,-2.1799,-2.1749,-2.1779,-2.1782,-2.1785,-2.185,-2.1859,-2.1866,0,0,0,0,0,-2.2002,-2.2025,-2.2004,-2.1999,-2.1962,-2.1949,-2.1944,-2.1903,-2.188,-2.1888,-2.1858,-2.1823,-2.1801,-2.1785,-2.1781,-2.1799,-2.1778,-2.1781,-2.1785,-2.1846,-2.1857,-2.1866,0,0,0,0,0,0,-2.207,-2.2018,-2.1995,-2.2004,-2.1982,-2.1937,-2.1946,-2.1916,-2.1899,-2.1894,-2.1844,-2.1835,-2.1841,-2.182,-2.1803,-2.1819,-2.1784,-2.1787,-2.1832,-2.1842,-2.185,-2.1854,-2.1748,0,0,0,0,0,-2.2087,-2.2081,-2.2036,-2.2048,-2.2038,-2.1995,-2.1987,-2.1958,-2.1933,-2.1922,-2.1892,-2.1868,-2.1855,-2.1847,-2.1833,-2.1847,-2.1836,-2.1857,-2.1865,-2.1872,-2.1875,-2.188,-2.1888,-2.1798,-2.1798,-2.1798,0,0,-2.212,-2.2091,-2.209,-2.2061,-2.204,-2.2035,-2.1987,-2.1983,-2.1978,-2.1921,-2.1919,-2.1897,-2.1866,-2.1873,-2.1874,-2.1855,-2.1897,-2.1877,-2.1882,-2.1881,-2.1884,-2.1893,-2.19,-2.1801,-2.18,-2.18,0,0,-2.2178,-2.2156,-2.2164,-2.2144,-2.2113,-2.2083,-2.2086,-2.2045,-2.2028,-2.2026,-2.1983,-2.1976,-2.1956,-2.1935,-2.1922,-2.1973,-2.194,-2.197,-2.2011,-2.2017,-2.2024,-2.203,-2.2047,-2.2054,-2.1973,-2.1973,-2.1973,0,-2.2223,-2.2213,-2.2171,-2.217,-2.2158,-2.2108,-2.2115,-2.2097,-2.2063,-2.2056,-2.2036,-2.2009,-2.1985,-2.1986,-2.1999,-2.199,-2.199,-2.1974,-2.2026,-2.2032,-2.2037,-2.2053,-2.2059,-2.1977,-2.1977,-2.1976,-2.1976,0,-2.227,-2.2264,-2.2274,-2.2243,-2.2232,-2.2236,-2.2193,-2.2188,-2.216,-2.2133,-2.2131,-2.21,-2.2079,-2.2077,-2.205,-2.2074,-2.2063,-2.2036,-2.1999,-2.205,-2.2064,-2.2069,-2.1982,-2.1981,-2.198,-2.1979,0,0,-2.2368,-2.2314,-2.2318,-2.2303,-2.2265,-2.226,-2.2261,-2.224,-2.2236,-2.2214,-2.2213,-2.2197,-2.2171,-2.2157,-2.2127,-2.2132,-2.2173,-2.2103,-2.2101,-2.2116,-2.2197,-2.2217,-2.2225,-2.2151,-2.2152,-2.2153,-2.2199,0,-2.2418,-2.2416,-2.2379,-2.2387,-2.2381,-2.2333,-2.2333,-2.231,-2.2285,-2.2275,-2.2247,-2.2236,-2.2204,-2.2194,-2.2197,-2.2167,-2.2188,-2.2163,-2.2148,-2.2148,-2.2156,-2.2232,-2.2253,-2.2298,-2.2204,-2.2205,-2.2206,0,-2.2476,-2.2458,-2.2466,-2.2428,-2.2424,-2.2425,-2.2403,-2.2395,-2.2368,-2.2349,-2.2333,-2.2299,-2.2297,-2.2264,-2.2259,-2.2243,-2.2234,-2.2219,-2.222,-2.2215,-2.2179,-2.2229,-2.2311,-2.2318,-2.2214,-2.2213,-2.2213,0,-2.2545,-2.2523,-2.2525,-2.2514,-2.247,-2.2472,-2.2453,-2.2424,-2.2415,-2.2395,-2.2388,-2.2369,-2.2358,-2.2344,-2.2306,-2.2285,-2.2305,-2.2268,-2.2288,-2.2289,-2.2293,-2.2293,-2.2374,-2.229,-2.229,-2.229,-2.229,0,-2.2604,-2.2611,-2.2556,-2.2557,-2.2563,-2.252,-2.2526,-2.2503,-2.2478,-2.2473,-2.2431,-2.2427,-2.2377,-2.2368,-2.2338,-2.2338,-2.2334,-2.2318,-2.2309,-2.2321,-2.2323,-2.2314,-2.2309,-2.2292,-2.2291,-2.2291,-2.2291,0,-2.2682,-2.2646,-2.2644,-2.2603,-2.2593,-2.2599,-2.2563,-2.2562,-2.2535,-2.2529,-2.2525,-2.2482,-2.2469,-2.2429,-2.2406,-2.2386,-2.2394,-2.2379,-2.2403,-2.2398,-2.2419,-2.2417,-2.2496,-2.2504,-2.2417,-2.2418,-2.2418,0,-2.2722,-2.2726,-2.2685,-2.2679,-2.2663,-2.2654,-2.2643,-2.2601,-2.2592,-2.2561,-2.2564,-2.2547,-2.2531,-2.2512,-2.2478,-2.246,-2.2444,-2.2473,-2.244,-2.2452,-2.2443,-2.2442,-2.2442,-2.2479,-2.248,-2.2481,-2.2482,0,-2.2796,-2.2777,-2.2765,-2.2746,-2.2735,-2.2718,-2.2698,-2.2696,-2.2648,-2.264,-2.2626,-2.2614,-2.2591,-2.2574,-2.2551,-2.2531,-2.2498,-2.2493,-2.2496,-2.2507,-2.2521,-2.2513,-2.2421,-2.2491,-2.249,-2.2489,-2.2489,-2.2488,-2.2855,-2.2856,-2.2827,-2.2814,-2.2795,-2.2778,-2.2775,-2.2747,-2.2735,-2.2713,-2.2689,-2.2678,-2.2649,-2.2614,-2.2597,-2.2587,-2.257,-2.2575,-2.2576,-2.2577,-2.2582,-2.2524,-2.2583,-2.2582,-2.2582,-2.2582,-2.2582,0,-2.2925,-2.2905,-2.2894,-2.2868,-2.2857,-2.2829,-2.2806,-2.2799,-2.279,-2.2767,-2.2752,-2.2736,-2.272,-2.2685,-2.2666,-2.2665,-2.2649,-2.2661,-2.266,-2.2656,-2.2599,-2.2598,-2.2674,-2.2674,-2.2674,-2.2674,-2.2674,-2.2673,-2.2961,-2.2961,-2.294,-2.293,-2.2909,-2.2898,-2.2887,-2.2871,-2.2852,-2.2836,-2.2823,-2.2801,-2.2772,-2.2751,-2.2735,-2.2725,-2.2719,-2.2735,-2.272,-2.2668,-2.266,-2.2651,-2.265,-2.2735,-2.2735,-2.2777,-2.2777,-2.2778]},{"header":{"parameterUnit":"m.s-1","parameterCategory":1,"la1":30.2991,"la2":30.254,"lo1":-89.0895,"lo2":-89.0444,"dy":0.0017,"dx":0.0017,"nx":28,"ny":28,"refTime":"2024-05-29T03:00:00:Z","depth":0,"parameterNumber":3,"parameterNumberName":"V-component_of_WINDS"},"data":[0,0,0,0,0,0,0,0,0,0,0,0,0,0,0,0,0,0,0,0,0,0,0,0,0,0,0,0,0,0,0,0,0,0,0,0,0,0,0,0,0,0,0,0,0,0,0,0,0,0,0,0,0,0,0,0,0,0,3.1565,3.1565,0,3.1573,3.1573,3.1574,3.1567,3.1567,3.1567,3.1567,3.1574,3.1574,3.1575,0,0,0,0,0,0,0,0,0,0,0,0,0,3.1543,3.1543,3.1565,3.1565,3.1565,3.1573,3.1573,3.1574,3.1567,3.1567,3.1567,3.1566,3.1574,3.1574,3.1575,0,0,0,0,0,0,0,0,0,0,0,0,0,3.1552,3.1544,3.1565,3.1563,3.1563,3.1573,3.1573,3.1574,3.1567,3.1567,3.1567,3.1566,3.1574,3.1574,3.1575,3.1587,0,0,3.1577,3.1577,0,0,0,0,0,0,0,0,3.1552,3.1553,3.1563,3.1563,3.1563,3.1569,3.1568,3.1578,3.1568,3.1566,3.1567,3.1566,3.1572,3.1573,3.1576,3.1587,3.1588,3.1577,3.1577,3.1578,3.1578,0,0,0,0,0,0,0,3.1551,3.1552,3.1568,3.1563,3.1563,3.1562,3.1563,3.157,3.1571,3.1566,3.1565,3.1567,3.1572,3.1575,3.1576,3.1588,3.1577,3.1577,3.1578,3.1578,3.161,3.1611,0,0,0,0,0,0,3.1551,3.1552,3.1568,3.1569,3.1556,3.1562,3.1563,3.1567,3.1571,3.1571,3.1567,3.1566,3.1574,3.1575,3.1576,3.159,3.1578,3.1578,3.1579,3.161,3.161,3.1611,0,0,0,0,0,0,3.155,3.1552,3.1568,3.156,3.1562,3.1563,3.1568,3.1568,3.157,3.1572,3.1572,3.1569,3.1574,3.1575,3.1584,3.1591,3.1579,3.1579,3.1609,3.161,3.1611,3.162,0,0,0,0,0,0,3.155,3.1552,3.1557,3.156,3.1562,3.1576,3.1568,3.1568,3.1572,3.1571,3.1574,3.1574,3.1574,3.1584,3.1585,3.1591,3.158,3.1609,3.161,3.161,3.1619,3.1621,3.1622,0,0,0,0,0,3.1549,3.1558,3.1557,3.1559,3.1568,3.1577,3.1578,3.1577,3.1572,3.1577,3.1578,3.1574,3.159,3.1585,3.1586,3.1593,3.1608,3.1609,3.161,3.1618,3.162,3.1622,0,0,0,0,0,0,3.1555,3.1559,3.1557,3.1568,3.1572,3.1576,3.1581,3.1579,3.1584,3.1583,3.1581,3.1582,3.1592,3.1593,3.1587,3.1605,3.1598,3.16,3.1604,3.1606,3.1607,3.1606,3.158,0,0,0,0,0,3.1557,3.1564,3.1567,3.1577,3.1579,3.158,3.1583,3.1583,3.1586,3.1588,3.1589,3.1593,3.1599,3.1602,3.1608,3.1619,3.162,3.1625,3.1626,3.1628,3.1629,3.1635,3.1637,3.1614,3.1614,3.1614,0,0,3.1563,3.1566,3.157,3.1578,3.1581,3.1588,3.1581,3.1588,3.1593,3.1589,3.1598,3.1599,3.1603,3.1614,3.1619,3.1615,3.1635,3.1629,3.163,3.163,3.1636,3.1639,3.164,3.1615,3.1615,3.1615,0,0,3.1576,3.1579,3.1588,3.1591,3.1596,3.1597,3.1599,3.1603,3.1604,3.1613,3.161,3.1616,3.1625,3.1628,3.1631,3.1647,3.1643,3.1649,3.1657,3.1663,3.1665,3.1666,3.1672,3.1674,3.165,3.165,3.165,0,3.1582,3.1592,3.1592,3.16,3.1604,3.1601,3.1609,3.1612,3.1618,3.1621,3.1617,3.163,3.1632,3.1644,3.1648,3.165,3.1652,3.1648,3.1665,3.1666,3.1668,3.1673,3.1675,3.165,3.165,3.165,3.165,0,3.1599,3.1607,3.1613,3.162,3.1624,3.1632,3.1633,3.1638,3.1637,3.1638,3.1648,3.1651,3.1657,3.1659,3.1658,3.1671,3.1669,3.1665,3.1658,3.1671,3.1675,3.1677,3.1651,3.1651,3.1651,3.1651,0,0,3.1615,3.1623,3.1625,3.1628,3.1634,3.1639,3.1648,3.1654,3.1658,3.1663,3.1669,3.1678,3.1675,3.1678,3.1678,3.1683,3.1695,3.1679,3.1679,3.1682,3.1709,3.1712,3.1714,3.1694,3.1694,3.1694,3.1709,0,3.1628,3.1643,3.1644,3.1657,3.1664,3.1662,3.1669,3.1673,3.1675,3.168,3.1682,3.1688,3.1684,3.1686,3.1691,3.1693,3.1701,3.1692,3.1699,3.17,3.1698,3.1717,3.1719,3.1733,3.1711,3.1711,3.1711,0,3.1646,3.1652,3.1666,3.1671,3.1674,3.1681,3.1687,3.1693,3.1697,3.1698,3.1702,3.1701,3.1709,3.1703,3.1714,3.1708,3.1711,3.1713,3.1713,3.1713,3.1706,3.1717,3.1737,3.1739,3.1714,3.1714,3.1714,0,3.1656,3.1667,3.1677,3.168,3.1687,3.1692,3.1694,3.1699,3.1703,3.1709,3.1711,3.1717,3.1721,3.1726,3.1726,3.1721,3.1737,3.1731,3.1738,3.1738,3.174,3.174,3.1761,3.1743,3.1743,3.1743,3.1743,0,3.167,3.1679,3.1682,3.1688,3.1698,3.1699,3.1708,3.1711,3.1715,3.1721,3.172,3.1726,3.1726,3.1733,3.1733,3.1742,3.1744,3.1744,3.1744,3.1744,3.1744,3.1746,3.1745,3.1744,3.1744,3.1744,3.1744,0,3.1683,3.1685,3.1696,3.1702,3.1704,3.1711,3.1715,3.1721,3.1723,3.1731,3.1733,3.1736,3.1743,3.1744,3.1752,3.1753,3.1764,3.1763,3.1762,3.1762,3.1768,3.1768,3.179,3.1793,3.1775,3.1775,3.1775,0,3.1691,3.1698,3.1705,3.171,3.1713,3.172,3.1725,3.1726,3.1731,3.1737,3.1742,3.175,3.1755,3.1767,3.1769,3.1776,3.1775,3.1782,3.1775,3.1775,3.1774,3.1774,3.1774,3.1783,3.1783,3.1784,3.1784,0,3.1707,3.1708,3.1715,3.1723,3.1728,3.1734,3.1739,3.1743,3.1745,3.1751,3.1758,3.1763,3.1772,3.1779,3.1785,3.1788,3.1786,3.1786,3.1788,3.1788,3.1787,3.1787,3.1765,3.1785,3.1785,3.1785,3.1785,3.1785,3.1717,3.1724,3.173,3.1737,3.1742,3.1747,3.1753,3.1756,3.1763,3.1771,3.1771,3.178,3.1785,3.1793,3.1797,3.1803,3.18,3.1803,3.1804,3.1804,3.1805,3.1787,3.1804,3.1804,3.1804,3.1804,3.1804,0,3.1732,3.1737,3.1744,3.1752,3.1758,3.1757,3.1764,3.1769,3.1776,3.1782,3.1788,3.1797,3.1804,3.1807,3.1814,3.1818,3.1818,3.182,3.182,3.182,3.1807,3.1804,3.1821,3.1821,3.1821,3.1821,3.1821,3.1821,3.1741,3.1751,3.1754,3.1766,3.177,3.1779,3.1783,3.1788,3.1792,3.1802,3.1808,3.1811,3.1815,3.1823,3.1829,3.183,3.1832,3.1835,3.1835,3.1823,3.1821,3.1819,3.1817,3.1836,3.1836,3.1848,3.1848,3.1848]}]]